Terminal Aerodrome Forecast
Issued by NWS Billings, MT

Home | Current Version | Previous Version | Graphics & Text | Print | Product List | Glossary On
Versions: 1 2 3 4 5 6 7 8 9 10 11 12 13 14 15 16 17 18 19 20 21 22 23 24 25 26 27 28 29
000
FTUS45 KBYZ 120832 AAA
TAFMLS
TAF AMD
KMLS 120832Z 1209/1306 VRB06KT P6SM VCFG SCT005 BKN020
      TEMPO 1209/1211 FEW020 OVC035
     FM121400 08009KT P6SM VCFG SCT010 OVC025
     FM121900 11011KT P6SM VCSH SCT040 OVC090=

USA.gov is the U.S. government's official web portal to all federal, state and local government web resources and services.